Temperature
23 21 22 22 22 22 23 23 23 21 18 17 16 15 15 15 14 14 14 15 15 16 16 17 18 18 18 18 18 17 17 17 17 17 18 18 18 18 18 18 18 17 17 17
21 22 23 23 24 23 23 24 22 19 19 17 16 15 15 15 14 14 14 15 16 17 17 17 17 17 17 17 17 17 16 17 17 17 17 17 17 17 18 18 18 18 17 17
24 23 24 25 24 25 24 24 23 20 18 17 17 16 15 15 14 14 14 15 15 16 16 16 16 16 16 16 16 16 16 16 16 17 17 17 17 17 18 18 18 18 17 17
23 23 24 24 24 25 23 24 24 22 19 17 18 17 16 15 14 14 14 14 15 15 16 16 16 16 16 17 17 17 17 17 17 17 17 16 16 17 17 17 17 17 17 17
22 23 24 24 25 25 24 22 22 21 20 18 18 17 16 15 14 14 14 14 14 15 15 16 16 16 16 16 17 17 17 16 16 16 16 16 15 15 15 15 16 16 17 17
22 23 23 24 24 24 23 21 19 17 17 18 18 18 17 15 15 14 14 14 14 15 15 16 16 16 16 16 16 16 16 16 16 15 15 15 15 15 15 15 15 15 15 16
21 22 23 24 24 23 21 20 18 19 18 18 18 18 17 16 16 15 15 15 15 15 15 16 16 16 16 16 16 16 16 16 15 15 15 14 14 14 14 14 14 14 14 14
21 21 23 23 23 23 21 20 19 20 19 17 17 17 16 16 16 16 16 15 15 15 15 16 16 16 15 15 15 15 15 15 15 14 14 14 14 14 14 14 14 14 14 14
21 21 23 23 23 23 22 19 18 17 18 17 17 17 16 16 15 15 15 15 15 15 15 15 15 15 15 15 14 14 14 14 14 14 14 14 14 13 13 13 13 13 13 13
21 21 21 22 22 21 20 18 16 17 18 18 18 17 14 14 14 14 14 15 15 15 15 15 15 14 14 14 14 14 14 14 14 14 14 14 13 13 13 13 13 12 12 12
20 19 20 20 19 19 19 18 15 14 15 17 17 15 14 13 13 13 14 15 15 15 15 14 14 14 13 13 13 13 13 13 13 13 13 13 13 13 13 13 13 13 12 12
18 16 18 19 19 19 18 17 16 17 16 14 14 14 13 13 13 14 14 15 15 14 14 14 13 13 13 13 13 13 13 13 13 13 13 12 12 12 12 12 12 12 12 12
17 16 17 18 18 18 18 17 15 13 13 14 14 15 13 12 13 14 14 15 14 14 14 13 13 13 12 12 12 12 12 12 12 12 12 12 12 12 12 12 12 12 12 12
16 15 16 18 18 18 18 17 16 15 14 15 15 14 13 12 12 13 14 14 14 14 13 13 12 12 12 11 11 11 11 11 11 11 11 11 11 11 11 11 11 11 11 12
16 17 18 17 18 18 17 17 17 16 16 14 14 14 13 12 12 13 14 14 13 13 13 12 12 11 11 10 10 9 9 9 9 9 9 9 10 10 10 10 10 11 11 11
15 17 18 18 18 17 17 17 17 17 16 15 14 13 13 14 13 13 13 13 13 13 12 11 11 10 10 9 8 8 7 7 7 7 7 7 7 8 8 9 9 10 10 10
14 16 16 16 17 17 16 16 16 16 15 14 13 12 12 11 11 12 13 13 12 12 11 10 10 9 8 7 7 6 6 5 5 5 5 5 6 6 6 7 7 8 9 9
15 14 13 15 17 18 16 17 17 16 14 13 13 12 12 12 13 13 13 12 11 11 10 9 8 8 7 6 5 5 4 4 4 4 4 4 4 4 4 5 5 6 6 7
14 14 13 14 16 16 16 17 16 15 13 13 12 11 12 13 11 12 12 11 10 10 9 8 7 6 6 5 4 4 4 4 4 4 4 4 4 4 3 3 4 4 5 6
13 13 13 14 17 16 16 17 16 15 13 13 13 11 12 11 8 9 11 10 10 9 8 7 6 6 5 4 4 4 4 4 3 3 4 4 3 3 3 3 3 3 4 4
16 14 14 14 15 15 15 16 15 14 13 15 14 13 13 10 10 11 10 9 8 8 7 7 6 5 5 4 4 4 4 4 4 4 4 4 3 3 3 3 3 3 3 4
15 15 14 12 15 15 16 14 13 14 16 15 14 13 13 12 11 10 9 8 8 7 7 7 6 6 5 4 4 4 4 4 4 4 4 4 3 3 3 3 3 3 3 3
14 14 13 13 14 15 16 16 17 16 15 14 14 13 12 11 10 9 8 8 8 7 7 6 6 6 6 5 5 4 5 4 4 4 4 4 3 3 3 3 3 3 3 3
14 12 12 12 13 15 16 16 16 15 15 14 13 13 11 10 9 8 8 8 8 8 7 6 6 6 6 6 5 5 5 5 4 4 4 4 3 3 3 3 3 3 3 3
15 12 12 13 13 15 15 16 16 15 14 14 13 12 10 9 9 8 8 8 8 8 7 7 6 6 6 6 6 6 5 5 5 4 4 4 4 4 4 3 3 3 4 4
13 13 13 14 16 14 17 17 16 15 14 13 12 11 10 9 8 8 8 7 7 7 7 7 7 6 6 6 6 6 6 6 5 5 4 4 4 4 4 4 4 4 4 4
Wind_Speed
3 4 2 6 6 6 4 2 2 4 3 8 12 11 9 7 9 10 9 8 9 8 8 10 11 11 11 11 10 9 8 8 6 5 4 4 3 5 5 5 6 8 8 9
6 2 6 6 4 4 4 1 3 4 5 5 8 10 8 8 7 7 7 9 10 10 12 13 12 12 10 9 9 8 8 8 7 5 3 3 4 4 5 5 4 5 7 8
4 7 4 2 2 1 1 2 3 6 4 4 6 5 5 5 5 6 7 6 8 8 9 9 8 8 7 7 7 6 6 6 6 6 4 4 3 4 4 5 5 4 5 6
6 5 3 4 3 2 3 3 4 6 7 4 4 3 3 4 3 2 3 5 6 6 5 5 5 5 5 5 5 6 6 5 6 6 4 4 4 4 4 5 6 8 5 4
6 3 3 4 4 3 3 3 3 3 5 4 3 4 3 5 3 3 2 2 4 5 5 6 6 6 6 6 6 5 5 5 4 4 3 2 2 2 3 4 5 7 7 6
5 4 3 3 3 1 3 6 7 6 5 3 4 2 3 3 5 6 5 5 5 6 7 8 8 8 8 7 7 6 5 5 4 3 2 2 2 2 2 3 4 4 4 4
9 9 5 2 4 6 8 7 6 7 6 3 3 2 0 1 4 6 7 7 6 7 7 8 9 9 9 10 9 8 7 7 7 6 6 6 6 5 4 4 3 3 3 3
6 8 7 6 3 2 4 6 6 2 3 4 4 2 2 1 4 6 5 4 4 6 7 9 10 10 10 11 10 10 9 10 9 8 9 8 8 5 5 6 5 4 4 4
0 6 6 5 4 3 3 4 4 6 2 2 4 3 4 4 5 4 3 1 3 6 8 9 9 9 9 10 11 11 11 11 11 10 10 9 9 8 8 8 6 6 6 5
3 4 7 7 8 9 6 6 5 4 2 2 5 4 5 8 5 3 3 4 7 8 9 10 9 9 9 9 10 10 10 11 12 11 10 9 9 9 9 8 9 8 8 7
3 1 6 6 8 7 7 6 6 5 4 3 3 2 3 4 3 4 4 5 7 9 10 10 8 8 10 10 10 10 11 11 11 12 12 11 12 11 9 9 11 11 10 9
4 5 3 4 5 3 5 5 4 3 2 2 1 4 3 1 1 1 4 7 8 9 10 9 10 10 10 11 12 11 11 11 12 12 12 12 12 12 11 11 13 12 12 11
5 6 4 6 7 8 7 6 5 6 5 3 1 5 2 2 3 5 7 9 9 10 10 10 10 10 11 12 13 13 13 13 13 12 12 12 12 13 13 13 13 12 12 12
5 5 5 4 3 1 4 6 5 5 3 2 5 8 4 5 8 9 10 10 10 11 11 11 11 11 12 12 12 13 14 14 13 12 12 12 13 14 13 13 12 12 12 12
5 5 2 1 2 5 4 4 4 3 3 5 7 8 8 7 9 9 10 11 11 12 12 12 11 11 11 11 11 11 12 12 12 12 13 14 14 13 13 12 12 12 11 12
5 5 3 2 4 5 3 3 2 1 2 5 6 7 7 8 7 9 12 13 12 12 12 13 13 13 13 12 11 11 10 10 10 11 13 13 13 13 12 12 12 11 11 11
3 4 4 3 3 1 3 3 2 4 5 5 6 7 9 11 10 10 11 12 13 14 14 14 14 14 14 13 12 12 10 11 12 12 13 13 12 13 12 13 12 12 11 10
6 5 4 2 3 3 6 3 3 5 6 7 8 9 10 12 10 10 12 10 11 12 11 12 13 13 12 11 12 12 13 14 15 15 15 14 13 14 13 13 13 12 10 9
4 7 4 3 1 5 3 4 3 4 8 8 8 10 9 9 8 7 8 6 8 10 11 13 14 15 11 12 12 13 14 15 16 16 16 16 15 15 14 14 14 12 10 9
7 6 6 4 1 5 7 3 1 2 7 7 8 9 9 7 7 8 7 8 10 11 11 13 13 13 12 12 12 14 15 16 16 16 16 16 15 15 15 14 14 12 11 10
4 5 4 3 4 7 6 2 3 2 7 4 5 7 8 6 8 8 10 9 10 12 14 13 13 12 12 12 12 14 15 15 16 16 17 16 15 14 14 13 13 12 11 10
5 4 4 4 3 7 6 7 6 9 5 4 5 7 8 8 9 9 10 11 12 13 12 12 12 13 12 11 12 15 16 16 16 16 16 15 14 13 12 11 11 10 9 9
6 8 6 8 8 6 7 9 7 6 5 5 5 7 6 6 7 8 9 10 12 12 12 12 13 14 13 10 11 15 17 17 17 16 15 14 13 11 10 10 10 8 6 6
4 4 4 4 8 7 8 6 5 5 7 6 6 6 4 7 9 10 10 10 11 11 12 12 13 14 14 13 13 14 16 16 16 15 14 12 11 10 9 8 6 6 5 5
7 7 4 6 7 4 8 9 7 5 6 5 4 4 6 8 9 9 9 11 11 12 11 11 13 14 14 14 15 15 15 15 15 13 12 11 10 9 8 7 6 6 6 6
6 9 9 9 8 8 8 8 8 8 8 7 6 5 6 6 8 9 9 10 11 13 12 13 13 14 14 14 15 15 14 14 14 12 10 9 8 8 7 7 7 7 8 9
Wind_Direction
37 67 284 262 221 226 263 283 76 93 112 69 82 82 60 50 53 51 41 33 28 20 8 19 21 21 20 17 11 5 1 354 353 349 346 340 318 306 298 273 248 235 220 204
30 306 245 258 258 220 228 218 96 85 111 101 100 80 66 54 50 42 34 23 17 13 13 14 16 17 16 11 8 8 8 1 355 342 313 287 287 290 286 291 289 258 232 212
248 251 258 279 306 347 306 200 182 150 106 96 119 82 69 59 49 34 18 8 5 12 6 0 3 2 357 358 356 355 356 352 346 342 334 333 331 322 336 339 334 321 285 251
272 272 309 305 274 178 294 254 208 159 148 185 181 139 154 134 87 38 356 348 342 341 344 336 334 331 327 323 326 329 332 337 344 356 14 23 10 345 337 331 329 335 333 302
280 290 312 290 266 218 248 43 75 98 128 85 45 118 162 156 157 189 208 252 278 290 295 292 292 293 295 292 290 290 299 313 327 353 18 39 30 304 299 319 340 352 354 357
268 291 251 264 310 331 95 69 52 55 71 61 338 101 157 191 178 166 177 196 226 248 265 274 281 285 285 280 271 264 263 268 268 269 252 210 222 255 293 320 337 342 342 352
341 335 342 330 346 17 57 69 27 11 13 281 312 86 83 187 160 159 170 188 211 231 246 262 270 272 272 276 274 270 267 269 263 261 258 248 243 248 261 274 284 300 313 315
15 326 337 359 1 25 62 113 139 197 242 291 357 14 316 342 125 129 145 176 217 246 255 262 267 270 274 278 279 278 274 273 268 258 258 256 253 251 255 256 254 261 261 268
349 291 323 358 3 70 81 74 137 130 134 357 321 342 16 59 77 101 116 142 289 292 292 291 295 297 293 290 286 282 280 279 275 265 259 259 253 247 250 253 251 251 249 255
164 278 316 324 22 30 72 124 75 83 105 317 321 9 351 342 351 56 51 6 335 324 315 310 309 307 302 294 287 285 276 272 276 278 272 268 259 251 248 251 253 250 250 245
104 129 335 21 27 346 14 43 79 91 116 139 301 321 349 330 17 42 12 336 317 307 305 299 294 291 293 294 290 283 278 274 274 273 273 274 274 268 252 245 249 250 249 243
99 103 27 326 317 339 75 55 81 81 29 98 176 263 316 356 71 3 302 294 294 296 297 287 279 284 291 293 292 287 278 271 265 264 264 265 268 271 266 257 252 247 245 245
111 87 53 358 346 10 38 31 75 96 93 77 341 267 213 347 319 297 292 294 295 300 299 287 283 288 292 293 293 292 287 280 275 271 266 265 266 265 265 264 259 250 243 242
99 86 133 165 242 321 44 21 40 83 90 287 246 264 274 322 309 301 295 289 287 290 291 288 286 287 287 287 287 288 289 289 290 288 283 277 273 269 267 267 264 257 246 238
81 94 96 95 82 99 86 61 58 90 171 212 260 274 266 275 279 281 283 287 292 293 292 291 291 291 290 290 290 291 292 296 298 297 293 288 283 280 278 275 270 264 252 244
64 113 105 84 82 94 84 42 37 36 253 250 271 279 257 272 287 287 286 288 290 294 300 303 303 303 303 304 307 309 305 306 306 303 298 294 290 288 283 281 279 273 264 252
81 118 115 191 213 323 269 216 232 260 235 227 244 256 284 293 292 282 285 295 299 303 305 305 306 306 309 313 315 312 306 309 307 304 302 299 297 295 293 293 290 283 275 262
125 103 113 111 63 251 256 237 222 255 246 212 228 256 272 272 277 278 282 290 293 296 300 304 305 306 307 307 309 308 312 313 312 309 306 305 304 302 300 297 291 284 279 270
121 128 107 94 344 292 266 230 218 256 271 219 233 265 278 292 315 296 287 291 289 297 302 303 303 305 304 307 310 314 316 314 311 308 305 303 299 296 294 291 288 285 279 270
61 81 102 107 181 255 242 222 199 169 287 236 232 272 289 319 321 292 295 310 304 303 301 302 304 303 306 311 315 317 316 313 309 306 301 297 292 289 288 285 283 279 274 268
43 45 90 152 226 262 240 199 90 201 264 250 244 267 280 263 249 275 302 302 296 296 300 303 306 309 311 315 317 316 314 311 307 304 300 295 289 285 283 280 278 275 270 264
165 154 184 164 208 264 205 147 185 223 244 263 264 265 270 271 280 292 298 297 300 304 305 308 312 314 314 317 320 317 314 310 308 306 304 300 293 288 288 283 282 275 268 256
190 189 190 190 213 239 198 200 216 197 226 247 248 266 278 282 288 293 290 293 300 303 306 312 315 316 317 320 320 317 314 313 313 313 313 310 305 296 288 285 285 278 263 250
248 149 160 241 261 243 233 237 242 211 218 240 254 272 268 273 280 286 289 296 304 305 311 315 317 318 320 323 322 316 315 315 316 320 323 322 319 314 303 294 286 277 266 254
229 172 195 248 272 271 252 230 222 219 227 250 263 254 258 267 277 282 293 302 306 309 312 315 315 316 318 322 320 319 319 321 323 325 329 331 329 324 317 309 294 278 262 252
199 179 180 220 219 196 234 225 198 205 225 234 238 251 259 261 275 291 299 300 305 308 312 316 316 316 317 319 317 318 322 325 326 328 331 331 331 331 326 322 317 289 270 269
Height
1498 1503 1507 1503 1502 1502 1503 1504 1506 1508 1511 1514 1520 1524 1525 1523 1520 1517 1515 1513 1511 1510 1510 1509 1508 1508 1507 1507 1506 1506 1505 1504 1502 1501 1501 1500 1500 1500 1501 1503 1503 1504 1504 1504
1503 1505 1497 1495 1495 1498 1500 1502 1507 1512 1512 1516 1523 1525 1526 1524 1522 1520 1518 1515 1514 1513 1512 1512 1512 1512 1511 1510 1509 1508 1507 1505 1503 1502 1501 1500 1499 1499 1499 1500 1500 1501 1501 1502
1503 1499 1493 1494 1495 1496 1498 1500 1502 1509 1514 1516 1520 1528 1528 1527 1525 1524 1521 1520 1519 1519 1518 1517 1516 1515 1514 1513 1511 1510 1508 1507 1505 1503 1501 1500 1498 1497 1496 1496 1496 1497 1498 1498
1499 1494 1493 1494 1494 1494 1501 1493 1494 1500 1514 1522 1521 1534 1532 1530 1530 1528 1527 1525 1524 1523 1522 1522 1520 1518 1517 1515 1514 1512 1509 1507 1504 1502 1499 1498 1496 1494 1493 1492 1491 1491 1492 1493
1500 1494 1494 1495 1492 1490 1492 1491 1494 1499 1509 1521 1520 1530 1535 1531 1533 1532 1530 1529 1528 1526 1525 1524 1522 1520 1519 1517 1514 1512 1509 1507 1504 1500 1498 1496 1494 1492 1491 1489 1488 1487 1486 1486
1497 1492 1492 1491 1488 1488 1489 1495 1502 1511 1519 1530 1525 1527 1534 1532 1530 1531 1531 1530 1529 1527 1526 1525 1523 1521 1519 1517 1514 1511 1508 1505 1502 1499 1496 1494 1492 1490 1488 1486 1484 1482 1481 1480
1504 1495 1490 1489 1491 1491 1494 1509 1528 1531 1537 1535 1525 1528 1534 1527 1526 1527 1529 1529 1529 1528 1527 1525 1523 1520 1518 1515 1512 1509 1505 1502 1499 1496 1493 1491 1489 1486 1484 1482 1480 1478 1477 1476
1516 1515 1497 1492 1494 1497 1500 1509 1530 1539 1542 1537 1529 1531 1532 1525 1526 1527 1528 1528 1529 1528 1526 1524 1521 1519 1515 1512 1508 1505 1501 1498 1495 1492 1489 1487 1484 1482 1480 1478 1476 1474 1473 1472
1516 1514 1497 1494 1493 1493 1501 1512 1514 1530 1533 1542 1535 1529 1528 1526 1527 1528 1528 1528 1528 1527 1525 1522 1519 1515 1511 1507 1503 1500 1496 1493 1490 1487 1484 1481 1479 1477 1475 1473 1471 1470 1468 1467
1509 1516 1505 1499 1495 1498 1503 1511 1521 1531 1540 1544 1537 1536 1541 1533 1530 1529 1528 1528 1527 1524 1521 1518 1514 1511 1507 1504 1499 1495 1491 1488 1485 1482 1478 1475 1473 1470 1468 1466 1465 1464 1463 1462
1508 1518 1515 1507 1512 1515 1512 1516 1526 1536 1537 1544 1547 1547 1538 1536 1532 1530 1529 1527 1525 1521 1518 1514 1511 1508 1504 1500 1496 1492 1487 1483 1479 1476 1472 1469 1466 1464 1461 1458 1457 1457 1456 1456
1512 1522 1527 1519 1512 1511 1513 1519 1524 1533 1539 1544 1550 1551 1536 1534 1531 1529 1527 1524 1521 1518 1514 1510 1507 1503 1499 1495 1490 1486 1481 1477 1473 1469 1465 1462 1459 1456 1453 1450 1448 1447 1447 1447
1512 1525 1538 1534 1528 1520 1520 1522 1527 1534 1543 1545 1549 1546 1534 1531 1528 1526 1523 1520 1517 1513 1509 1506 1502 1498 1493 1489 1484 1479 1474 1469 1465 1461 1457 1453 1450 1447 1444 1441 1439 1437 1436 1437
1509 1526 1535 1538 1533 1527 1527 1528 1527 1533 1544 1544 1540 1536 1529 1527 1525 1521 1518 1515 1511 1508 1504 1500 1496 1492 1487 1482 1477 1471 1466 1462 1457 1452 1447 1443 1440 1438 1435 1432 1429 1427 1426 1426
1512 1526 1526 1527 1524 1524 1528 1529 1529 1531 1533 1540 1536 1532 1526 1524 1521 1517 1513 1509 1506 1502 1498 1494 1489 1484 1479 1474 1468 1463 1457 1452 1447 1442 1437 1433 1430 1426 1424 1422 1420 1418 1417 1416
1517 1525 1526 1528 1526 1527 1530 1530 1529 1530 1530 1531 1531 1529 1521 1519 1517 1513 1509 1505 1500 1496 1492 1488 1483 1477 1471 1465 1459 1453 1448 1443 1438 1433 1428 1423 1419 1415 1412 1410 1409 1408 1406 1406
1522 1526 1532 1537 1529 1531 1536 1531 1529 1529 1528 1529 1532 1527 1519 1516 1513 1510 1505 1500 1497 1493 1488 1483 1477 1471 1464 1458 1452 1446 1440 1434 1429 1424 1419 1414 1410 1405 1402 1399 1398 1397 1396 1396
1520 1529 1536 1538 1534 1539 1535 1524 1524 1525 1524 1524 1523 1521 1517 1513 1509 1506 1502 1498 1494 1489 1483 1477 1471 1465 1459 1453 1446 1440 1433 1427 1421 1416 1410 1405 1401 1396 1392 1389 1387 1386 1386 1386
1515 1524 1535 1542 1539 1538 1530 1523 1523 1525 1525 1519 1519 1516 1513 1509 1505 1502 1499 1495 1491 1486 1480 1473 1466 1459 1453 1447 1441 1434 1428 1422 1415 1409 1404 1398 1393 1388 1384 1380 1378 1377 1377 1377
1519 1523 1534 1541 1539 1540 1529 1520 1520 1523 1524 1516 1515 1513 1510 1507 1507 1499 1495 1491 1487 1482 1475 1468 1460 1454 1447 1442 1435 1429 1422 1416 1410 1403 1397 1391 1386 1381 1377 1373 1370 1368 1368 1368
1524 1530 1536 1540 1540 1533 1520 1518 1520 1529 1524 1513 1511 1509 1507 1505 1503 1497 1492 1488 1482 1476 1469 1462 1455 1448 1442 1436 1430 1424 1417 1411 1404 1397 1390 1384 1378 1373 1369 1366 1363 1361 1360 1360
1525 1531 1536 1542 1539 1533 1514 1516 1519 1517 1510 1509 1508 1506 1503 1500 1497 1493 1488 1483 1477 1470 1463 1457 1450 1443 1437 1431 1425 1419 1413 1406 1399 1392 1385 1378 1372 1367 1363 1359 1356 1354 1353 1353
1521 1521 1524 1526 1523 1511 1509 1509 1509 1508 1507 1506 1505 1502 1500 1497 1493 1489 1484 1478 1472 1466 1459 1453 1446 1439 1433 1427 1422 1415 1409 1402 1395 1387 1380 1373 1367 1362 1358 1355 1352 1350 1349 1349
1514 1513 1516 1516 1510 1506 1506 1506 1506 1505 1504 1504 1502 1500 1497 1494 1490 1486 1480 1474 1467 1461 1455 1449 1442 1436 1429 1423 1418 1412 1406 1399 1392 1384 1377 1370 1365 1360 1356 1352 1350 1348 1347 1346
1508 1511 1513 1511 1506 1504 1502 1502 1502 1502 1501 1501 1499 1497 1494 1491 1487 1482 1476 1469 1464 1458 1452 1445 1439 1432 1426 1420 1414 1409 1403 1396 1389 1383 1376 1369 1364 1359 1355 1351 1348 1346 1345 1344
1502 1503 1507 1506 1498 1499 1497 1497 1498 1499 1498 1497 1496 1493 1491 1488 1483 1478 1472 1466 1460 1454 1448 1442 1437 1430 1423 1417 1411 1406 1400 1394 1388 1381 1375 1369 1364 1360 1356 1352 1348 1346 1344 1343